Location: Unspecified
(0.0000°N, 0.0000°E)
Time: 17:22:44
(UTC+00:00)

Vanguard 1 Rocket - All Passes

Search period start: 07 February 2016 00:00
Search period end: 17 February 2016 00:00
Orbit: 650 x 4227 km, 34.3° (Epoch: 07 February)

Date Brightness Start Highest point End Pass type
(mag) Time Alt. Az. Time Alt. Az. Time Alt. Az.
07 Feb - 03:00:14 10° N 03:09:08 17° NNE 03:21:07 10° ENE visible
07 Feb - 05:23:49 10° NW 05:42:35 51° NE 06:07:31 10° ESE visible
07 Feb - 07:51:53 10° WNW 08:16:21 77° SW 08:40:17 10° SE daylight
07 Feb - 10:28:49 10° W 10:50:37 33° SW 11:06:58 10° SSE daylight
07 Feb - 13:22:34 10° SSW 13:25:56 11° SSW 13:28:58 10° S daylight
07 Feb - 18:22:55 10° SSW 18:27:54 30° SSE 18:31:49 10° E daylight
07 Feb - 20:49:31 10° W 20:52:52 21° NNW 20:56:34 10° NNE visible
08 Feb - 04:12:50 10° NNW 04:27:38 34° NE 04:49:07 10° E visible
08 Feb - 06:38:37 10° NW 07:00:39 82° NE 07:26:34 10° SE daylight
08 Feb - 09:10:42 10° WNW 09:34:56 48° SW 09:55:28 10° SE daylight
08 Feb - 11:56:42 10° WSW 12:10:17 18° SSW 12:20:30 10° SSE daylight
08 Feb - 17:12:03 10° SSW 17:16:18 16° SSE 17:19:37 10° ESE daylight
08 Feb - 19:37:18 10° WSW 19:42:04 55° NW 19:46:25 10° NE visible
09 Feb - 03:02:51 10° N 03:13:04 21° NE 03:27:35 10° ENE visible
09 Feb - 05:26:34 10° NW 05:45:22 60° NE 06:11:12 10° ESE visible
09 Feb - 07:55:13 10° WNW 08:19:05 66° SW 08:43:02 10° SE daylight
09 Feb - 10:34:07 10° W 10:54:17 28° SSW 11:09:46 10° SSE daylight
09 Feb - 13:28:21 10° SSW 13:30:47 10° S 13:32:59 10° S daylight
09 Feb - 16:01:12 10° S 16:03:49 11° SSE 16:06:06 10° SSE daylight
09 Feb - 18:25:37 10° SW 18:31:25 54° SE 18:35:42 10° ENE daylight
09 Feb - 20:54:52 10° NW 20:56:25 11° NNW 20:58:01 10° N visible
10 Feb - 01:56:10 10° NNE 01:58:40 11° NNE 02:01:24 10° NE visible
10 Feb - 04:15:32 10° NNW 04:30:43 41° NE 04:53:41 10° ESE visible
10 Feb - 06:41:38 10° NW 07:03:18 86° SW 07:29:30 10° SE daylight
10 Feb - 09:15:00 10° W 09:38:09 40° SW 09:58:09 10° SSE daylight
10 Feb - 12:03:16 10° SW 12:14:52 16° SSW 12:23:50 10° SSE daylight
10 Feb - 14:49:47 10° S 14:50:21 10° S 14:50:53 10° S daylight
10 Feb - 17:13:59 10° SSW 17:20:07 26° SSE 17:24:22 10° E daylight
10 Feb - 19:41:07 10° W 19:45:22 29° NW 19:49:15 10° NNE visible
11 Feb - 03:05:26 10° NNW 03:16:37 26° NE 03:33:26 10° E visible
11 Feb - 05:29:26 10° NW 05:48:03 71° NE 06:14:32 10° ESE visible
11 Feb - 07:58:50 10° WNW 08:21:59 56° SW 08:45:42 10° SE daylight
11 Feb - 10:39:56 10° WSW 10:58:21 24° SSW 11:12:45 10° SSE daylight
11 Feb - 13:31:30 10° SSW 13:35:39 11° S 13:39:15 10° SSE daylight
11 Feb - 16:02:03 10° SSW 16:07:58 17° SSE 16:12:13 10° ESE daylight
11 Feb - 18:28:39 10° SW 18:34:47 84° NW 18:39:11 10° NE visible
12 Feb - 01:57:10 10° N 02:02:45 13° NNE 02:09:49 10° ENE visible
12 Feb - 04:18:16 10° NNW 04:33:34 50° NE 04:57:43 10° ESE visible
12 Feb - 06:44:51 10° WNW 07:06:03 74° SW 07:32:15 10° SE daylight
12 Feb - 09:19:46 10° W 09:41:42 34° SSW 10:00:54 10° SSE daylight
12 Feb - 12:09:22 10° SW 12:19:43 15° SSW 12:27:49 10° SSE daylight
12 Feb - 14:49:10 10° SSW 14:54:49 14° S 14:59:10 10° SE daylight
12 Feb - 17:16:24 10° SW 17:23:48 43° SSE 17:28:28 10° ENE daylight
12 Feb - 19:45:34 10° WNW 19:48:40 17° NW 19:51:33 10° N visible
13 Feb - 03:08:02 10° NNW 03:19:50 32° NE 03:38:36 10° E visible
13 Feb - 05:32:25 10° NW 05:50:43 84° NE 06:17:33 10° SE visible
13 Feb - 08:02:49 10° WNW 08:25:08 47° SSW 08:48:19 10° SE daylight
13 Feb - 10:46:07 10° WSW 11:02:51 21° SSW 11:16:03 10° SSE daylight
13 Feb - 13:33:48 10° SSW 13:40:28 13° S 13:45:42 10° SSE daylight
13 Feb - 16:03:55 10° SSW 16:11:57 26° SSE 16:17:03 10° E daylight
13 Feb - 18:32:04 10° WSW 18:38:02 47° NW 18:42:19 10° NE visible
14 Feb - 01:59:07 10° N 02:06:28 17° NE 02:16:44 10° ENE visible
14 Feb - 04:21:05 10° NW 04:36:17 61° NE 05:01:18 10° ESE visible
14 Feb - 06:48:20 10° WNW 07:08:57 63° SW 07:34:52 10° SE daylight
14 Feb - 09:25:01 10° WSW 09:45:39 29° SSW 10:03:49 10° SSE daylight
14 Feb - 12:14:29 10° SW 12:24:43 15° S 12:32:38 10° SSE daylight
14 Feb - 14:50:42 10° SSW 14:59:08 19° SSE 15:04:49 10° ESE daylight
14 Feb - 17:19:09 10° SW 17:27:17 71° SE 17:32:10 10° ENE daylight
15 Feb - 03:10:42 10° NNW 03:22:47 39° NE 03:43:08 10° ESE visible
15 Feb - 05:35:33 10° NW 05:53:28 84° SW 06:20:20 10° SE visible
15 Feb - 08:07:12 10° W 08:28:37 40° SSW 08:50:58 10° SSE daylight
15 Feb - 10:52:17 10° SW 11:07:42 19° SSW 11:19:51 10° SSE daylight
15 Feb - 13:35:56 10° SSW 13:45:08 17° S 13:51:42 10° SE daylight
15 Feb - 16:06:08 10° SW 16:15:46 39° SSE 16:21:19 10° E daylight
15 Feb - 18:35:56 10° W 18:41:10 28° NW 18:45:06 10° NNE visible
16 Feb - 02:01:23 10° N 02:09:51 22° NE 02:22:44 10° E visible
16 Feb - 04:24:01 10° NW 04:38:59 73° NE 05:04:30 10° ESE visible
16 Feb - 06:52:05 10° WNW 07:12:06 53° SSW 07:37:24 10° SE daylight
16 Feb - 09:30:42 10° WSW 09:50:01 25° SSW 10:06:59 10° SSE daylight
16 Feb - 12:18:28 10° SSW 12:29:42 16° S 12:38:04 10° SE daylight
16 Feb - 14:52:36 10° SSW 15:03:15 27° SSE 15:09:42 10° ESE daylight
16 Feb - 17:22:13 10° WSW 17:30:35 72° NW 17:35:31 10° NE daylight
